Simultaneous Nadir Overpasses (SNOs) Predictions

Prediction of SNOs between GOES-15 and METOP-B Satellite Orbit:

Table of predicted SNOs for the next 14.0 days since TLE Epoch: 2/3/2024
Index Date Time (GOES-15) GOES-15 Lat,Lon METOP-B Lat,Lon Distance(km) Time Diff (sec)
1 02/03/2024 17:35:56 -0.01, 61.61 -0.81, 57.92 419.30 80
2 02/04/2024 17:12:39 -0.00, 61.60 0.32, 62.90 149.25 80
3 02/06/2024 05:31:33 -0.02, 61.59 0.69, 58.32 371.75 80
4 02/07/2024 05:13:35 -0.00, 61.58 -0.37, 63.31 197.60 80
5 02/08/2024 17:32:38 0.00, 61.56 -0.64, 58.69 326.65 80
6 02/09/2024 17:09:20 -0.00, 61.56 0.49, 63.67 241.45 80
7 02/11/2024 05:28:14 0.00, 61.56 0.57, 59.10 280.40 80
8 02/12/2024 05:10:16 0.00, 61.55 -0.56, 64.08 288.48 80
9 02/13/2024 17:29:20 -0.00, 61.53 -0.44, 59.46 235.19 80
10 02/14/2024 17:06:01 -0.00, 61.53 0.64, 64.45 332.71 80
11 02/16/2024 05:24:55 0.00, 61.54 0.36, 59.87 190.50 80
